Wind_Speed
39 38 37 37 40 41 39 38 39 39 39 39 39 38 36 34 34 34 34 34 33 33 36 39 40 42 42 43 44 47 49 53 56 54 54 55 55 56 55 55 56 57 54 54 52
38 37 37 40 41 40 42 44 43 44 43 44 43 43 42 41 41 39 38 40 39 38 37 36 38 39 42 44 45 46 47 52 53 55 56 57 58 57 57 57 61 57 55 55 54
41 40 42 43 43 46 48 49 48 49 49 49 47 46 44 41 42 43 43 44 44 44 40 41 40 39 39 40 44 45 48 51 52 51 53 56 57 56 58 60 62 58 58 57 54
44 42 42 46 49 50 51 52 51 51 48 45 46 47 46 46 47 46 45 46 47 47 47 46 44 44 42 41 40 39 48 52 51 47 50 53 53 56 54 62 63 59 59 58 54
48 48 50 52 54 55 55 54 52 52 51 50 51 52 52 52 57 52 52 50 50 50 50 49 50 50 48 45 45 41 45 47 51 52 52 53 55 54 50 65 60 55 60 61 54
55 56 58 58 59 57 56 54 55 56 56 59 60 57 54 55 59 57 55 58 57 56 54 54 55 55 53 52 51 48 48 49 49 53 53 53 53 45 55 65 53 55 57 56 56
61 61 63 64 62 61 63 64 64 64 64 64 62 61 56 62 62 62 60 60 60 61 61 60 58 59 59 60 57 54 54 53 51 58 55 55 45 46 57 60 57 56 55 54 57
63 65 64 63 64 67 68 68 67 67 68 69 68 66 59 68 68 68 68 66 63 60 61 63 63 62 62 62 61 61 59 58 60 63 62 57 40 50 58 57 56 58 56 54 58
64 65 65 65 66 68 67 65 63 59 60 59 60 60 58 63 66 71 70 70 70 68 68 67 66 66 64 66 65 64 66 67 67 67 67 60 52 54 59 56 57 58 58 56 56
64 64 62 60 56 54 55 54 53 55 54 55 55 58 58 58 61 64 68 71 73 74 74 74 76 74 70 69 70 74 72 70 69 73 72 68 61 59 60 60 56 59 60 57 55
50 49 48 50 54 58 60 60 62 60 58 60 61 59 61 63 65 66 69 73 72 71 69 72 74 70 78 78 81 77 74 74 76 78 77 76 65 63 64 68 64 66 64 60 58
52 56 59 62 63 66 66 66 67 68 62 68 70 68 72 70 67 69 73 76 78 77 80 80 70 73 75 76 79 81 78 76 79 84 85 81 71 68 70 76 72 69 70 68 64
58 62 65 68 71 73 76 77 80 80 75 69 78 76 76 81 77 80 83 83 81 80 82 86 81 83 82 78 75 75 78 82 85 85 84 84 78 80 79 81 79 77 75 73 71
65 69 73 76 78 82 86 85 87 89 88 79 80 81 82 84 86 88 90 91 88 87 88 85 82 82 84 85 86 81 79 81 83 86 84 83 78 81 83 87 87 82 79 79 77
70 75 79 75 85 91 93 93 95 97 95 90 88 91 85 87 88 90 94 95 95 95 95 89 87 87 86 85 86 87 86 91 87 85 80 83 82 79 87 92 91 86 83 82 80
82 85 87 95 95 101 94 99 103 106 100 99 93 92 93 93 90 90 96 99 101 102 99 97 97 95 95 93 90 89 90 97 94 91 84 82 82 83 88 93 97 95 90 87 84
91 91 95 102 107 103 95 93 96 99 95 97 95 95 95 94 95 94 95 99 102 104 102 102 102 101 100 100 98 94 93 94 100 97 87 86 86 81 84 90 99 97 97 94 90
100 103 105 112 110 100 98 99 99 98 94 99 97 99 98 96 97 100 103 106 105 107 105 105 101 101 102 101 104 103 100 99 98 99 93 95 91 90 89 86 88 95 96 94 92
103 105 110 114 106 100 99 101 99 96 94 95 94 94 93 93 94 96 101 105 104 106 107 107 105 103 106 106 106 106 107 104 104 102 100 96 94 89 92 92 90 90 88 89 92
107 112 114 104 100 98 95 90 91 88 85 83 84 86 86 86 86 89 93 94 95 97 96 100 101 105 108 110 111 110 109 109 108 105 101 98 94 91 93 93 93 89 88 86 84
114 117 106 97 92 88 85 81 79 77 76 75 75 77 79 82 82 86 88 90 90 91 90 92 93 97 102 104 107 107 108 108 108 107 105 102 101 99 96 96 95 92 88 86 84
119 105 98 91 83 77 74 73 72 70 67 65 65 64 65 70 74 79 85 86 87 88 88 86 86 90 95 99 101 104 107 108 109 108 104 101 101 101 101 100 96 94 90 87 84
108 99 89 80 76 73 68 65 62 61 62 60 59 58 59 62 67 69 72 76 77 81 83 85 83 85 91 94 97 97 100 101 103 101 99 97 96 97 100 101 97 95 92 89 86
101 91 84 77 73 67 61 57 57 57 59 59 58 58 57 57 60 64 67 70 70 69 69 74 78 84 88 87 90 94 97 97 99 95 94 91 91 95 98 97 97 96 94 92 89
95 84 77 76 73 64 60 55 55 54 53 52 50 50 52 50 52 57 59 62 64 64 65 67 71 74 79 87 88 92 93 93 97 95 94 91 90 93 94 95 96 97 97 96 92
90 84 80 75 66 63 60 54 52 50 47 44 40 39 40 42 42 43 50 53 54 57 61 62 66 72 73 77 85 89 90 91 91 91 92 94 87 91 92 94 97 99 100 99 97
89 85 82 73 66 62 58 58 52 49 44 39 35 33 32 33 33 34 39 44 46 49 53 56 61 66 70 73 76 76 84 91 93 93 91 89 89 91 92 93 97 101 102 101 99
Wind_Direction
295 297 297 296 300 301 300 298 297 299 298 296 295 293 286 281 279 278 276 272 266 264 259 257 256 254 254 250 247 245 245 246 245 242 241 240 239 239 240 241 241 240 238 241 242
296 296 293 293 294 293 293 294 295 295 293 292 291 291 287 282 276 271 268 267 268 267 264 263 259 255 252 252 249 246 246 246 245 246 245 245 243 241 240 240 240 241 238 239 240
294 292 291 290 288 289 291 293 294 292 291 291 290 289 285 282 278 275 271 265 261 264 264 263 262 260 255 252 252 250 247 245 246 246 247 246 246 245 242 242 245 241 240 239 240
293 291 287 285 285 288 289 289 289 287 285 288 289 288 285 281 278 276 273 266 262 259 259 261 262 260 258 256 253 249 248 247 247 247 249 247 245 245 247 247 246 243 243 244 241
288 288 286 286 287 289 288 287 286 284 278 282 285 285 285 283 277 277 273 267 264 260 259 259 257 257 258 255 253 251 250 248 249 250 247 247 246 246 247 246 248 251 246 249 250
286 287 288 289 288 285 285 284 282 282 281 280 281 281 281 281 279 277 271 268 264 260 261 261 261 259 256 256 255 251 250 250 250 252 248 245 246 244 247 249 249 252 254 250 249
288 289 291 290 289 287 288 287 286 285 284 284 283 281 280 274 276 277 272 268 264 263 261 259 259 259 258 255 256 253 251 253 252 252 249 246 242 243 244 250 252 251 249 248 250
290 290 291 292 291 292 291 290 288 287 285 283 281 280 278 274 276 273 272 271 267 263 263 263 260 257 257 257 255 255 254 255 253 253 251 248 241 248 246 247 249 253 250 248 248
291 292 291 291 290 289 288 288 288 288 286 281 282 280 276 269 268 270 270 266 267 266 262 260 259 259 259 257 258 257 251 252 252 254 256 253 244 243 251 248 248 249 250 247 248
291 292 292 293 291 289 287 285 284 283 282 283 284 281 281 275 274 274 271 269 267 265 264 263 260 259 260 258 254 253 256 254 251 254 255 254 250 246 250 250 249 250 249 247 247
297 294 293 289 286 285 286 287 286 283 284 284 279 277 275 269 270 269 268 270 271 269 266 261 260 263 259 255 255 256 252 250 250 251 251 252 249 250 251 251 248 247 250 249 248
293 294 294 294 293 291 290 288 288 286 283 286 285 285 283 276 269 266 264 263 262 261 261 264 265 261 258 257 256 256 257 253 249 249 248 248 249 249 250 253 250 250 251 251 250
299 299 297 295 293 291 290 289 287 284 282 282 282 279 277 275 269 268 265 263 260 259 260 258 258 257 260 260 258 257 254 251 251 250 249 247 245 248 250 252 251 250 250 250 251
310 308 310 305 302 297 295 292 289 288 284 280 276 274 274 273 270 266 265 264 264 264 263 259 258 257 256 255 258 257 256 252 250 250 249 248 242 248 249 250 250 248 250 250 250
315 314 312 307 310 307 300 295 293 289 286 281 279 275 272 273 271 267 265 262 262 262 262 262 259 258 255 254 255 254 252 252 252 252 250 249 246 242 248 249 249 248 247 247 248
316 314 312 313 309 307 300 292 289 286 287 282 277 276 275 273 268 265 263 261 260 260 258 258 257 256 258 255 253 250 250 248 250 249 249 250 248 244 245 248 248 247 245 245 246
316 314 315 312 307 302 296 288 283 281 279 276 275 271 269 265 263 262 260 260 259 258 257 256 254 255 253 254 255 253 250 249 247 247 247 246 248 248 244 247 249 247 246 245 246
316 313 311 313 313 304 299 293 285 280 279 277 274 272 268 263 260 258 256 253 253 252 251 250 250 252 253 253 253 254 251 249 248 244 242 242 244 245 245 246 249 249 245 246 246
312 313 317 312 306 301 296 290 286 285 283 280 278 275 272 269 265 261 257 255 253 252 251 248 247 248 250 251 251 252 251 252 248 244 241 240 240 243 245 246 247 250 249 245 245
320 319 316 312 307 301 296 293 291 288 285 281 277 276 273 270 267 263 262 259 256 254 251 250 248 247 246 247 248 247 247 246 246 244 242 241 241 240 240 242 244 244 247 248 245
324 319 316 311 305 301 297 294 291 287 284 280 276 272 269 267 264 261 258 258 258 256 253 250 247 246 247 247 247 247 246 245 244 243 242 240 239 238 237 238 240 242 242 245 246
324 321 317 312 309 305 301 298 294 292 288 284 279 275 271 268 265 261 259 255 254 253 253 249 246 245 245 244 244 245 245 245 245 243 241 241 239 238 238 237 237 239 240 241 243
324 323 320 316 314 312 309 305 302 299 296 291 286 281 275 270 266 263 261 259 255 252 251 249 244 242 242 242 240 241 243 243 243 243 241 239 239 236 235 235 234 234 235 236 238
328 326 321 321 321 318 315 312 308 304 299 295 291 285 279 272 267 264 261 259 257 252 249 247 246 241 241 240 240 238 239 240 241 240 240 237 235 234 231 230 231 232 233 233 233
330 329 328 330 327 324 321 317 313 308 302 297 291 285 280 273 266 263 261 257 256 254 249 245 245 243 241 240 238 238 238 237 240 239 237 236 235 233 232 231 231 230 230 230 229
333 334 335 334 330 328 325 322 319 314 308 301 294 288 281 276 270 264 262 261 257 253 251 245 242 241 239 239 237 238 238 238 236 237 235 236 231 233 232 230 228 228 227 228 228
337 339 340 337 335 333 331 329 326 322 318 312 309 300 290 281 274 264 258 256 255 252 249 246 243 241 239 238 238 237 236 236 237 236 235 233 232 230 231 226 225 223 225 225 227
Height
10721 10718 10715 10713 10711 10708 10706 10705 10703 10701 10699 10697 10695 10693 10691 10689 10687 10686 10686 10685 10683 10682 10681 10681 10681 10683 10684 10685 10687 10689 10692 10692 10695 10699 10701 10704 10706 10708 10711 10713 10714 10717 10723 10727 10733
10714 10711 10708 10706 10703 10700 10698 10696 10694 10692 10690 10688 10685 10683 10681 10680 10678 10677 10677 10675 10674 10674 10673 10672 10672 10672 10674 10676 10677 10680 10682 10681 10685 10688 10691 10694 10695 10700 10702 10703 10700 10708 10712 10718 10723
10706 10703 10700 10697 10694 10692 10689 10686 10684 10682 10679 10677 10675 10674 10671 10670 10668 10667 10666 10664 10664 10664 10663 10664 10663 10664 10664 10665 10667 10671 10672 10671 10673 10678 10681 10683 10686 10691 10693 10693 10690 10699 10701 10708 10713
10698 10695 10691 10687 10684 10681 10679 10676 10673 10671 10668 10666 10664 10663 10660 10658 10655 10657 10655 10653 10653 10651 10652 10653 10653 10654 10655 10657 10657 10661 10659 10660 10662 10668 10670 10671 10678 10679 10686 10678 10681 10690 10694 10697 10704
10688 10684 10681 10677 10673 10670 10667 10664 10661 10659 10657 10655 10653 10652 10650 10647 10637 10645 10643 10642 10640 10641 10640 10640 10641 10640 10644 10647 10647 10651 10647 10650 10651 10654 10657 10660 10664 10669 10679 10661 10672 10682 10684 10687 10695
10677 10673 10669 10665 10661 10657 10654 10651 10648 10645 10643 10641 10640 10639 10638 10633 10625 10629 10630 10625 10627 10628 10628 10628 10628 10629 10631 10633 10635 10640 10638 10638 10643 10640 10644 10649 10652 10665 10658 10648 10667 10666 10669 10678 10684
10664 10661 10656 10651 10646 10642 10638 10636 10633 10630 10627 10624 10622 10623 10626 10610 10611 10608 10609 10610 10611 10611 10613 10612 10615 10616 10618 10618 10623 10625 10628 10629 10632 10625 10632 10634 10649 10652 10640 10644 10651 10654 10658 10667 10670
10651 10646 10643 10638 10633 10626 10622 10618 10615 10611 10608 10606 10604 10604 10610 10592 10592 10590 10589 10589 10591 10596 10597 10597 10598 10600 10602 10604 10608 10609 10615 10617 10614 10612 10613 10622 10643 10632 10629 10636 10640 10641 10647 10654 10657
10639 10633 10629 10623 10616 10610 10605 10600 10596 10592 10588 10586 10584 10582 10588 10579 10573 10568 10569 10569 10570 10573 10575 10578 10580 10584 10588 10588 10591 10596 10595 10598 10598 10597 10599 10610 10623 10620 10616 10624 10628 10629 10634 10640 10645
10626 10620 10614 10608 10601 10595 10589 10585 10581 10578 10573 10568 10566 10562 10565 10564 10558 10551 10548 10548 10551 10551 10553 10555 10554 10562 10570 10573 10573 10566 10578 10586 10586 10583 10585 10592 10607 10609 10606 10609 10616 10614 10618 10626 10633
10614 10607 10602 10597 10589 10582 10574 10571 10565 10561 10558 10552 10551 10548 10544 10544 10541 10537 10530 10527 10528 10529 10531 10528 10531 10546 10542 10543 10542 10551 10559 10566 10569 10567 10568 10571 10591 10597 10595 10592 10599 10598 10603 10612 10618
10604 10596 10589 10584 10575 10566 10559 10550 10544 10541 10546 10534 10530 10531 10520 10522 10523 10516 10511 10509 10505 10507 10503 10506 10520 10515 10514 10518 10524 10529 10537 10544 10544 10545 10548 10558 10576 10579 10576 10570 10581 10588 10590 10597 10604
10593 10584 10574 10566 10558 10548 10538 10530 10521 10514 10518 10526 10505 10503 10499 10489 10496 10492 10485 10482 10484 10484 10484 10482 10493 10491 10492 10498 10502 10506 10511 10515 10518 10522 10530 10543 10561 10557 10557 10556 10561 10567 10573 10581 10586
10578 10568 10558 10545 10537 10525 10513 10502 10491 10480 10481 10493 10484 10477 10468 10459 10461 10462 10457 10453 10456 10459 10455 10461 10471 10471 10471 10475 10474 10483 10487 10486 10492 10498 10511 10517 10540 10541 10532 10535 10536 10549 10560 10562 10568
10562 10549 10535 10524 10512 10496 10481 10469 10458 10444 10436 10446 10444 10438 10438 10431 10428 10425 10422 10422 10423 10423 10423 10439 10443 10443 10446 10454 10450 10462 10460 10458 10468 10477 10489 10499 10506 10523 10513 10509 10516 10527 10535 10541 10548
10538 10526 10514 10499 10483 10466 10450 10432 10419 10405 10406 10390 10397 10397 10394 10389 10386 10385 10384 10385 10387 10386 10395 10404 10406 10414 10416 10418 10424 10429 10432 10436 10441 10452 10468 10477 10480 10494 10490 10485 10490 10500 10511 10520 10528
10517 10500 10485 10469 10450 10421 10408 10391 10372 10362 10360 10350 10348 10346 10346 10345 10342 10342 10343 10340 10345 10348 10361 10364 10371 10376 10383 10387 10390 10400 10406 10407 10412 10429 10451 10456 10456 10461 10468 10471 10465 10474 10488 10502 10512
10489 10473 10454 10431 10408 10383 10362 10341 10328 10318 10316 10304 10304 10294 10296 10301 10302 10301 10295 10296 10300 10306 10317 10323 10336 10342 10346 10356 10360 10367 10370 10378 10387 10403 10419 10423 10427 10437 10447 10447 10448 10454 10469 10482 10494
10461 10439 10413 10386 10361 10341 10320 10300 10287 10281 10277 10266 10260 10256 10254 10256 10259 10258 10254 10251 10263 10270 10276 10288 10299 10307 10309 10318 10326 10335 10336 10353 10352 10369 10386 10395 10404 10412 10422 10428 10434 10437 10446 10461 10471
10429 10399 10372 10345 10320 10299 10281 10264 10250 10242 10240 10233 10224 10217 10218 10216 10217 10215 10214 10219 10226 10231 10244 10250 10265 10268 10273 10282 10288 10294 10307 10313 10322 10335 10356 10372 10381 10388 10397 10404 10410 10420 10427 10439 10451
10392 10355 10329 10307 10285 10269 10249 10233 10219 10211 10204 10197 10191 10186 10182 10179 10180 10177 10179 10183 10189 10196 10208 10220 10232 10239 10241 10248 10255 10264 10272 10281 10292 10304 10323 10339 10350 10360 10368 10378 10386 10398 10410 10419 10430
10347 10324 10296 10272 10254 10237 10221 10203 10189 10178 10172 10165 10158 10155 10153 10147 10146 10144 10141 10151 10159 10165 10171 10187 10201 10205 10207 10213 10225 10231 10239 10250 10257 10273 10293 10308 10322 10334 10342 10351 10364 10377 10388 10401 10411
10319 10289 10264 10245 10223 10205 10191 10175 10160 10149 10140 10135 10131 10129 10125 10122 10116 10116 10115 10117 10128 10136 10145 10154 10168 10172 10173 10182 10194 10202 10209 10220 10231 10246 10263 10279 10293 10304 10312 10322 10339 10354 10366 10379 10392
10289 10264 10237 10217 10200 10182 10165 10153 10140 10131 10120 10111 10106 10101 10098 10097 10092 10089 10090 10092 10098 10111 10121 10125 10136 10138 10144 10158 10165 10176 10181 10192 10202 10221 10237 10253 10264 10272 10282 10300 10318 10332 10344 10356 10369
10260 10239 10220 10194 10172 10157 10145 10134 10122 10111 10101 10092 10086 10078 10072 10072 10071 10067 10067 10069 10075 10084 10092 10101 10104 10111 10121 10127 10140 10141 10156 10170 10177 10195 10210 10227 10237 10241 10264 10281 10295 10308 10318 10331 10345
10240 10217 10195 10176 10157 10139 10124 10115 10105 10093 10083 10073 10066 10059 10054 10049 10050 10052 10048 10050 10058 10063 10065 10074 10080 10083 10093 10101 10109 10122 10135 10146 10157 10166 10182 10195 10214 10222 10240 10256 10269 10281 10291 10303 10318
10220 10198 10178 10158 10141 10125 10109 10095 10085 10074 10064 10054 10048 10043 10038 10034 10033 10033 10032 10032 10037 10042 10045 10052 10057 10063 10069 10080 10088 10104 10110 10115 10125 10140 10158 10173 10188 10198 10210 10229 10242 10253 10266 10279 10293